STARLINK-31772, 59430

Orbit data source: Space-Track

STARLINK-31772, 59430 is a payload satellite owned by SpaceX/Seattle (US) in LEO that was launched on Sun, 07 Apr 2024 UTC via an FALCON 9 launch vehicle from the Air Force Western Test Range (AFWTR). Payload-class satellites include a variety of spacecraft equipped with specific instruments for various scientific and technological missions. These include communications satellites like Starlink; space stations such as the ISS; scientific satellites like the Hubble; Earth observation satellites from companies like Planet Labs, Umbra, and HawkEye 360; GPS; miniature CubeSats for education and research; and military/defense satellites.

Loading next visibility...
Identifier
59430, 2024-065K
Orbit
LEO
Country
Flag of USUS
Related business
Manufacturer
SpaceX/Seattle
Mission
Operational Commercial Communications
Bus & Motor
STARLINK V2M, Unknown motor
Mass
730 kg wet, ~700 kg dry
Launch date (UTC)
2024-04-07 (2 years ago)
Launch vehicle
FALCON 9
Launch site
Air Force Western Test Range (AFWTR)
Object type
Payload
Rocket body
Debris
Shape & HBR
Box + 2 Pan, 17.7 m
Radar Cross Section
33.884 m², Large (>1 m²)

Expand to show TLE details & history
Last TLE update: 5 days ago

TLE from 5 days ago
0 STARLINK-31772
1 59430U 24065K   26168.30268270  .00001123  00000-0  50044-4 0  9993
2 59430  53.1600 178.7640 0001064  73.3849 286.7268 15.30197768124188
Epoch: 2026-06-17T07:15Z
TLE epoch observation values (Epoch: 2026-06-17T07:15:51.785Z)
Latitude
-0.00005°
Longitude
164.23588°
Altitude
475.912 km
Speed
7.629 km/s
True Right ascension
11h 55m 03s
True Declination
0° 00' 00"
Sunlit
Object was in daylight at epoch
Visualization orbit readout
Latitude
Unknown
Longitude
Unknown
Altitude
Unknown
Speed
Unknown
Apparent Right ascension
Unknown
Apparent Declination
Unknown
Sunlit
N/A
Visualization observer readout
Local Sidereal Time
21:32:37
Azimuth
Unknown
Elevation
Unknown
Doppler factor
Unknown
Orbital elements
Apogee altitude
476.207 km
Perigee altitude
474.749 km
Semi-major axis
6,853.615 km
Eccentricity
0.00011
Inclination
53.16°
RAAN
178.764°
Arg. of periapsis
73.3849°
True anomaly
286.71512°
Mean anomaly
286.7268°
Eccentric anomaly
286.72096°
Mean motion
3.82528 °/min
Orbital period
94.11 mins
BSTAR
0.000050044
Loading maneuver chart data...
Computing Atmospheric mass density...
Loading historical data...
Loading historical data...
Loading historical data...
Loading historical data...
Loading historical data...
Loading historical data...
Loading historical data...

Documentation

Showing up to 5 results
|